Other Surface Observations
Issued by NWS Tucson, AZ

Home | Current Version | Previous Version | Text Only | Print | Product List | Glossary On
Versions: 1 2 3 4 5 6 7 8 9 10 11 12 13 14 15 16 17 18 19 20 21 22 23 24 25 26 27 28 29 30 31 32 33 34 35 36 37 38 39 40 41 42 43 44 45 46 47 48 49 50
000
SXUS55 KTWC 091315
OSOTWC

WEATHER ROUNDUP FOR SOUTHEAST ARIZONA
NATIONAL WEATHER SERVICE TUCSON AZ
615 AM MST TUE FEB 09 2016

AZZ504>506-514-091415-
LOCATION       SKY/WX    TMP DP  RH WIND       PRES   REMARKS
TUCSON         CLEAR     46  21  37 S7        30.21R
DAVIS-MONTHAN  CLEAR     55  19  24 SE12      30.19S
CHILDRENS PARK N/A      N/A N/A N/A N/A               PIMA CO DEQ
ALVERNON/22ND  N/A       46 N/A N/A E2                PIMA CO DEQ
CHERRY/GLENN   N/A       43 N/A N/A E2                PIMA CO DEQ
TANGERINE      N/A       45 N/A N/A NE5               PIMA CO DEQ
CONTL RANCH    N/A       46  28  50 SE3               PIMA CO DEQ
GRANT/1ST      N/A       44  28  53 SE1               PIMA CO DEQ
CRAYCROFT/22ND N/A       47  23  39 N/A               PIMA CO DEQ
GOLFLINKS/KOLB N/A       51  21  31 SE4               PIMA CO DEQ
AJO/12TH       N/A       43  27  52 S5                PIMA CO DEQ
SAGUARO EAST   N/A       13 -14  27 S6                PIMA CO DEQ
FAIRGROUNDS    N/A       57 N/A N/A E10               PIMA CO DEQ
SAGUARO        N/A       45  24  44 N5                *SABINO CYN
SAN CARLOS     N/A       44  24  45 NW4G10            *SAN CARLOS
GREEN VALLEY   N/A       41  23  48 S4                PIMA CO DEQ
HORSE CAMP CYN N/A       48  20  32 E16G20            *ARAVAIPA CYN
RINCON MTNS    N/A       42   6  22 NE7G17            *NR MANNING CAMP
$$

AZZ509>511-091415-
LOCATION       SKY/WX    TMP DP  RH WIND       PRES   REMARKS
SAFFORD        CLEAR     47  24  40 SE13      30.30R
STRAY HORSE    N/A       36  12  36 NE2               *
TRAIL CABIN    N/A       38  19  46 SE5               *N OF GRANVILLE
BLACK HILLS    N/A       43  23  44 SE3               *N OF FT THOMAS
DRY LAKE       N/A       39  17  40 SE6G10            *NATANES MTNS
NOON CREEK     N/A       45  20  37 SW7G10            *PINALENO MTNS
COLUMBINE      N/A       23  13  65 CALM              *PINALENO MTNS
GUTHRIE        N/A       44  17  33 NE12G16           *SW OF GUTHRIE
$$

AZZ502-503-513-091415-
LOCATION       SKY/WX    TMP DP  RH WIND       PRES   REMARKS
NOGALES        CLEAR     41  17  38 E6        30.24R
SELLS          N/A       49  23  35 S3                *
SASABE         N/A       34  24  67 SW6               *ALTAR VLY
HOPKINS        N/A       51  -2  11 E17G26            *SANTA RITA MTNS
CARR CYN       N/A       38  16  41 SW2               *W OF HEREFORD
$$

AZZ507-508-512-091415-
LOCATION       SKY/WX    TMP DP  RH WIND       PRES   REMARKS
SIERRA VISTA   PTCLDY    39  20  47 NW1       30.30R
DOUGLAS        PTCLDY    26  15  63 N3        30.30R
EMPIRE MTNS    N/A       38  17  42 W4                *LAS CIENEGAS NCA
MULESHOE RANCH N/A       57  14  18 E12G24            *PRESERVE
HEADQUARTERS   N/A       50  14  23 NE7G17            *CHIRICAHUA MTNS
$$

.............................NOTES.............................
THIS IS AN AUTOMATED COLLECTIVE WITH MINIMAL QUALITY CONTROL.
PIMA CO DEQ SITES HAVE NONSTANDARD WIND SENSOR HEIGHTS.
PIMA CO DEQ SITES DO NOT REPORT WIND GUSTS.
* INDICATES WIND SENSORS LOCATED AT 20 FEET INSTEAD OF 33 FEET.
..............................KEY..............................
SKY/WX - SKY CONDITION/WEATHER
TMP    - TEMPERATURE IN FAHRENHEIT
DP     - DEWPOINT IN FAHRENHEIT
RH     - RELATIVE HUMIDITY IN PERCENT
WIND   - DIRECTION AND SPEED IN MILES PER HOUR (MPH)
VRB    - VARIABLE WIND DIRECTION
PRES   - MEAN SEA LEVEL PRESSURE IN INCHES OF MERCURY
         F - FALLING PRESSURE   R - RISING PRESSURE
         S - STEADY PRESSURE
VSB    - VISIBILITY IN MILES
HX     - HEAT INDEX IN FAHRENHEIT
WCI    - WIND CHILL INDEX IN FAHRENHEIT
N/A    - NOT AVAILABLE
AFB    - AIR FORCE BASE
         DAVIS-MONTHAN IS DAVIS-MONTHAN AIR FORCE BASE
CYN    - CANYON
MTNS   - MOUNTAINS
NCA    - NATIONAL CONSERVATION AREA
NR     - NEAR
VLY    - VALLEY
CONTL  - CONTINENTAL
PIMA CO DEQ - PIMA COUNTY DEPT OF ENVIRONMENTAL QUALITY



USA.gov is the U.S. government's official web portal to all federal, state and local government web resources and services.